Theta_e
354 348 344 342 342 342 341 340 338 332 327 324 323 323 323 326 326 326 324 323 323 319
343 342 340 340 340 339 337 329 326 323 322 322 323 323 326 325 326 324 324 324 324 321
338 337 336 336 333 331 328 325 324 322 321 321 322 326 327 325 326 325 323 322 323 322
336 335 335 335 330 325 323 324 320 319 318 320 324 324 326 325 324 323 322 323 322 321
336 335 335 333 332 332 325 322 320 320 322 322 323 324 323 322 321 320 319 319 318 317
336 336 334 330 329 328 327 328 327 325 326 326 325 323 322 321 320 319 318 318 318 317
338 336 332 331 331 329 328 327 326 327 326 325 322 321 321 320 320 320 319 319 319 318
335 336 334 332 330 329 327 327 326 326 325 325 322 313 316 319 319 319 318 317 315 313
333 333 333 331 329 329 327 327 326 325 323 322 311 300 301 306 316 315 313 312 312 311
327 326 326 330 329 329 326 327 325 323 320 316 310 298 298 300 313 313 311 308 306 304
328 326 325 327 328 327 327 323 323 319 317 314 304 297 297 298 310 311 307 303 301 300
331 324 325 325 324 320 320 320 318 316 315 312 306 296 296 298 309 307 303 301 299 300
329 326 326 320 317 319 319 316 315 313 312 302 305 295 295 296 305 302 300 301 300 296
318 317 316 317 319 319 317 315 314 311 311 308 302 298 295 294 300 298 297 297 296 296
Wind_Speed
7 1 5 3 4 5 5 6 2 5 5 5 6 5 5 7 8 7 6 7 7 7
6 7 6 7 7 7 6 4 5 7 9 8 8 8 11 6 6 4 5 6 8 9
6 7 7 6 6 7 6 6 7 6 6 3 4 7 5 5 6 5 6 7 8 9
7 7 7 8 7 7 7 6 6 6 5 4 5 3 5 4 5 6 7 9 10 11
6 5 6 8 8 8 9 6 5 4 5 4 3 2 4 6 6 7 8 9 9 10
3 4 6 7 6 8 8 7 6 5 2 1 2 3 5 6 7 7 8 9 10 11
3 4 5 5 5 6 6 5 6 3 2 2 4 6 6 7 7 9 9 10 9 10
4 2 2 2 4 4 4 3 4 3 2 2 4 11 10 10 10 9 10 7 7 7
3 0 1 4 3 4 3 4 1 2 4 6 8 12 16 14 8 8 8 8 8 10
2 1 4 4 5 3 4 2 2 4 5 7 9 14 14 15 9 8 8 9 9 9
5 5 5 5 5 4 4 4 3 5 5 7 9 13 14 17 11 8 7 7 5 6
6 5 6 4 5 4 5 4 5 5 6 5 9 11 14 17 8 8 7 6 3 6
3 7 4 6 3 2 5 6 5 6 7 7 9 11 12 16 8 8 7 6 4 11
10 9 5 7 1 3 4 6 6 6 5 8 7 9 11 14 9 8 7 7 7 6
Wind_Direction
160 86 20 20 286 268 263 310 334 111 128 142 135 148 159 199 211 200 215 234 251 275
44 28 27 10 348 336 1 59 95 119 127 143 169 184 189 212 211 212 221 239 243 256
28 39 39 36 32 28 38 62 80 51 76 102 183 206 187 181 197 230 250 253 260 262
19 38 64 70 82 95 91 89 88 95 146 198 193 198 212 257 288 256 259 262 264 263
3 55 74 85 86 91 102 99 96 118 209 202 193 229 259 259 285 270 272 275 275 282
37 64 82 89 94 105 114 120 138 152 115 184 246 273 280 290 295 287 281 281 285 292
17 67 87 99 102 110 102 112 119 127 92 10 327 320 316 304 297 293 294 300 308 310
336 52 89 100 106 100 84 75 93 123 95 10 348 31 343 318 300 316 312 318 305 315
291 133 179 173 167 136 121 115 153 73 25 44 56 10 4 350 332 321 309 315 323 329
64 344 259 219 190 170 140 92 90 64 79 79 64 19 360 337 307 312 319 330 330 337
230 229 219 247 210 137 105 122 97 87 93 89 60 17 348 329 280 303 353 359 352 341
234 222 234 244 89 96 130 112 99 97 85 77 68 27 349 334 322 14 344 332 43 342
251 234 184 99 82 109 117 114 111 96 89 59 78 48 6 353 347 357 345 355 38 74
48 43 15 73 67 92 85 103 93 90 95 78 44 68 28 6 359 358 349 343 356 355